Flag for Switzerland

Past Weather in Lucerne, Lucerne, Switzerland — Yesterday and Last 2 Weeks

Now
55 °F

Cool.


Feels Like: 55 °F
Forecast: 55 / 45 °F
Wind: 2 mph from Northwest

Location: Giswil
Current Time: Sep 24, 2020 at 7:16:23 am
Latest Report: Sep 24, 2020 at 6:00 am
Visibility: N/A
Pressure29.84 "Hg
Humidity: 99%
Dew Point: 54 °F
Location of LucerneLocation

Past Weather in Lucerne — Graph

°F

Lucerne Temperature Yesterday

Maximum temperature yesterday: 67 °F (at 4:00 pm)
Minimum temperature yesterday: 53 °F (at 11:00 pm)
Average temperature yesterday: 60 °F

High & Low Weather Summary for the Past Weeks

 TemperatureHumidityPressure
High82 °F (Sep 15, 5:00 pm)100% (Sep 9, 7:00 am)30.34 "Hg (Sep 9, 7:00 am)
Low49 °F (Sep 9, 8:00 am)50% (Sep 16, 2:00 pm)29.80 "Hg (Sep 23, 4:00 pm)
Average64 °F86%30.08 "Hg
* Reported Sep 9 6:00 am — Sep 24 6:00 am, Lucerne. Weather by CustomWeather, © 2020

Note: Actual official high and low records may vary slightly from our data, if they occured in-between our weather recording intervals... More about our weather records

Lucerne Weather History for the Previous 24 Hours

Scroll right to see more
 ConditionsComfort  
Time TempWeatherWind HumidityBarometerVisibility
6:00 am
Thu, Sep 24
55 °FCool.2 mph99%29.84 "HgN/A
5:00 am54 °FCool.2 mph99%29.83 "HgN/A
2:00 am54 °FCool.No wind99%29.83 "HgN/A
1:00 am52 °FCool.1 mph99%29.85 "HgN/A
12:00 am53 °FCool.2 mph99%29.84 "HgN/A
11:00 pm
Wed, Sep 23
53 °FCool.1 mph100%29.84 "HgN/A
10:00 pm54 °FCool.2 mph99%29.85 "HgN/A
9:00 pm56 °FCool.3 mph99%29.83 "HgN/A
8:00 pm58 °FCool.1 mph99%29.82 "HgN/A
7:00 pm63 °FMild.1 mph93%29.81 "HgN/A
6:00 pm64 °FMild.No wind89%29.80 "HgN/A
5:00 pm63 °FMild.2 mph88%29.82 "HgN/A
4:00 pm67 °FMild.No wind73%29.80 "HgN/A
3:00 pm66 °FMild.1 mph73%29.81 "HgN/A
2:00 pm65 °FMild.1 mph79%29.83 "HgN/A
1:00 pm64 °FMild.1 mph82%29.83 "HgN/A
12:00 pm64 °FMild.1 mph82%29.84 "HgN/A
11:00 am62 °FCool.1 mph87%29.85 "HgN/A
10:00 am61 °FCool.1 mph94%29.86 "HgN/A
9:00 am58 °FCool.1 mph99%29.87 "HgN/A
8:00 am56 °FCool.1 mph99%29.88 "HgN/A
7:00 am57 °FCool.1 mph99%29.86 "HgN/A
Weather by CustomWeather, © 2020

See weather overview